Regional Weather Roundup
Issued by NWS Newport/Morehead, NC

Current Version | Previous Version | Graphics & Text | Print | Product List | Glossary On
Versions: 1 2 3 4 5 6 7 8 9 10 11 12 13 14 15 16 17 18 19 20 21 22 23 24 25 26 27 28 29 30 31 32 33 34 35 36 37 38 39 40 41 42 43 44 45 46 47 48 49 50
000 ASUS42 KMHX 300013 RWRMHX WEATHER ROUNDUP FOR EASTERN NORTH CAROLINA NATIONAL WEATHER SERVICE NEWPORT/MOREHEAD CITY NC 800 PM EDT FRI MAY 29 2015 NOTE: "FAIR" INDICATES FEW OR NO CLOUDS BELOW 12,000 FEET WITH NO SIGNIFICANT WEATHER AND/OR OBSTRUCTIONS TO VISIBILITY NCZ015>017-031-032-045>047-102-103-300100- NORTH COAST CITY SKY/WX TMP DP RH WIND PRES REMARKS EDENTON PTCLDY 75 69 82 E7 30.20S ELIZABETH CITY CLEAR 75 67 76 E12 30.22R KITTY HAWK N/A 73 69 88 E3 30.21S MANTEO CLEAR 74 69 85 SE7 30.22F $$ NCZ045>047-081-094-103-104-300100- CENTRAL COAST CITY SKY/WX TMP DP RH WIND PRES REMARKS FRISCO CLEAR 76 66 71 SE7 30.22S SWANQUARTER N/A 75 N/A N/A SE6G12 30.18S $$ NCZ095-097-098-100-101-300100- SOUTHERN COAST CITY SKY/WX TMP DP RH WIND PRES REMARKS BEAUFORT CLEAR 76 67 73 SE6 30.20S CEDAR ISLAND N/A 75 N/A N/A E10 30.24S JACKSONVILLE PTCLDY 76 67 73 SE7 30.19S PINEY ISLAND CLEAR N/A N/A N/A SE9 30.21R WILMINGTON CLOUDY 77 68 73 E8 30.19R $$ NCZ011>013-027>030-043-044-078>080-089-090>093-098-300100- COASTAL PLAIN CITY SKY/WX TMP DP RH WIND PRES REMARKS AHOSKIE PTCLDY 77 66 70 SE5 30.19S CLINTON CLEAR 80 66 63 SE3 30.17S ELIZABETHTOWN CLEAR 80 64 56 SE6 30.17S GOLDSBORO NOT AVBL GREENVILLE CLEAR 81 66 61 S6 30.20R HAVELOCK PTCLDY 76 67 73 SE7 30.21R KENANSVILLE CLEAR 78 64 62 SE6 30.19R KINSTON CLEAR 79 66 65 SE8 30.19R NEW BERN MOCLDY 76 69 79 SW5 30.21R RICHLANDS PTCLDY 77 64 65 S5 30.20S ROCKY MOUNT PTCLDY 82 65 56 SE6 30.17S WASHINGTON CLEAR 76 68 74 SE9 30.20S WHITEVILLE MOCLDY 79 66 64 SE5 30.18R $$ AMZ130-135-150-152-154-156-158-170-250-252-270-ANZ085-086-088-633-658-670-300100- MARINE OBSERVATIONS STATION/POSITION TIME TEMP WIND PRES WAVE SWELL AIR SEA DIR/SP/G HT/PER HT/PER (UTC) (F) (DEG/KT/KT) (MB) (FT/S) (FT/S) CHESAPEAKE LIGHT 2300 69 130/ 17/ 18 1023.8 64 E VA BEACH 2350 70 69 100/ 6/ 8 1023.5 3/ 8 3/ 8 DUCK 2300 73 62 100/ 10/ 10 1022.5 2 E DUCK 2311 68 N/A 2/ 9 OREGON INLET 2300 75 80 90/ 7/ 10 1023.4 13E OREGON INLT 0000 75 N/A 3/ 8 HATTERAS CG 2300 78 79 110/ 6/ 8 1022.9 DIAMOND BUOY 2350 77 80 120/ 10/ 12 1023.2 3/ 8 3/ 8 CAPE LOOKOUT 0000 76 110/ 8/ 9 1022.6 BEAUFORT LAB 2300 77 76 110/ 10/ 13 1022.0 27 SE WRIGHTSVLE 2300 76 120/ 4/ 6 N/A 5 SE WRIGHTSVLE 2308 77 78 130/ 12/ 16 1021.9 225 S CAPE HAT 2350 75 75 90/ 14/ 16 1021.7 6/ 9 5/ 9 41 SE CHARLESTON 2350 78 79 90/ 12/ 14 1020.7 4/ 9 3/ 9 $$

USA.gov is the U.S. government's official web portal to all federal, state and local government web resources and services.